Year,Month,Day,Hour,Minute,Value (Times are PST for windspeed in km/hr)
2013,10,06,00,00,5.20
2013,10,06,00,01,4.50
2013,10,06,00,02,3.20
2013,10,06,00,03,3.90
2013,10,06,00,04,3.40
2013,10,06,00,05,3.20
2013,10,06,00,06,3.80
2013,10,06,00,07,2.30
2013,10,06,00,08,3.30
2013,10,06,00,09,3.70
2013,10,06,00,10,1.10
2013,10,06,00,11,0.10
2013,10,06,00,12,2.90
2013,10,06,00,13,0.90
2013,10,06,00,14,0.10
2013,10,06,00,15,0.60
2013,10,06,00,16,1.80
2013,10,06,00,17,0.10
2013,10,06,00,18,0.30
2013,10,06,00,19,2.60
2013,10,06,00,20,2.80
2013,10,06,00,21,2.10
2013,10,06,00,22,2.90
2013,10,06,00,23,3.90
2013,10,06,00,24,1.60
2013,10,06,00,25,0.00
2013,10,06,00,26,2.30
2013,10,06,00,27,2.00
2013,10,06,00,28,3.50
2013,10,06,00,29,0.10
2013,10,06,00,30,1.10
2013,10,06,00,31,0.30
2013,10,06,00,32,1.80
2013,10,06,00,33,1.70
2013,10,06,00,34,1.40
2013,10,06,00,35,0.10
2013,10,06,00,36,0.00
2013,10,06,00,37,0.00
2013,10,06,00,38,3.10
2013,10,06,00,39,3.40
2013,10,06,00,40,1.80
2013,10,06,00,41,4.30
2013,10,06,00,42,4.60
2013,10,06,00,43,4.90
2013,10,06,00,44,5.10
2013,10,06,00,45,5.60
2013,10,06,00,46,5.20
2013,10,06,00,47,5.40
2013,10,06,00,48,6.50
2013,10,06,00,49,6.20
2013,10,06,00,50,5.70
2013,10,06,00,51,5.80
2013,10,06,00,52,6.40
2013,10,06,00,53,6.80
2013,10,06,00,54,5.30
2013,10,06,00,55,5.40
2013,10,06,00,56,5.60
2013,10,06,00,57,5.60
2013,10,06,00,58,7.40
2013,10,06,00,59,5.10
2013,10,06,01,00,7.10
2013,10,06,01,01,6.40
2013,10,06,01,02,5.10
2013,10,06,01,03,5.40
2013,10,06,01,04,5.40
2013,10,06,01,05,6.00
2013,10,06,01,06,4.10
2013,10,06,01,07,5.10
2013,10,06,01,08,4.30
2013,10,06,01,09,5.00
2013,10,06,01,10,5.70
2013,10,06,01,11,5.40
2013,10,06,01,12,5.70
2013,10,06,01,13,4.70
2013,10,06,01,14,6.40
2013,10,06,01,15,6.80
2013,10,06,01,16,4.80
2013,10,06,01,17,4.60
2013,10,06,01,18,4.30
2013,10,06,01,19,4.60
2013,10,06,01,20,4.30
2013,10,06,01,21,4.40
2013,10,06,01,22,5.10
2013,10,06,01,23,3.40
2013,10,06,01,24,4.90
2013,10,06,01,25,3.10
2013,10,06,01,26,2.30
2013,10,06,01,27,1.70
2013,10,06,01,28,2.50
2013,10,06,01,29,3.50
2013,10,06,01,30,3.80
2013,10,06,01,31,2.50
2013,10,06,01,32,1.40
2013,10,06,01,33,3.60
2013,10,06,01,34,4.70
2013,10,06,01,35,4.30
2013,10,06,01,36,4.30
2013,10,06,01,37,3.90
2013,10,06,01,38,2.50
2013,10,06,01,39,2.40
2013,10,06,01,40,2.90
2013,10,06,01,41,3.40
2013,10,06,01,42,1.70
2013,10,06,01,43,0.20
2013,10,06,01,44,0.00
2013,10,06,01,45,0.00
2013,10,06,01,46,0.00
2013,10,06,01,47,0.00
2013,10,06,01,48,0.00
2013,10,06,01,49,0.00
2013,10,06,01,50,0.00
2013,10,06,01,51,0.00
2013,10,06,01,52,0.00
2013,10,06,01,53,0.00
2013,10,06,01,54,0.00
2013,10,06,01,55,0.00
2013,10,06,01,56,0.00
2013,10,06,01,57,0.00
2013,10,06,01,58,2.30
2013,10,06,01,59,2.80
2013,10,06,02,00,0.10
2013,10,06,02,01,0.80
2013,10,06,02,02,2.70
2013,10,06,02,03,0.70
2013,10,06,02,04,0.10
2013,10,06,02,05,0.20
2013,10,06,02,06,0.00
2013,10,06,02,07,0.10
2013,10,06,02,08,2.60
2013,10,06,02,09,3.50
2013,10,06,02,10,4.30
2013,10,06,02,11,2.60
2013,10,06,02,12,3.20
2013,10,06,02,13,3.20
2013,10,06,02,14,2.60
2013,10,06,02,15,1.80
2013,10,06,02,16,2.70
2013,10,06,02,17,3.80
2013,10,06,02,18,3.10
2013,10,06,02,19,5.00
2013,10,06,02,20,4.30
2013,10,06,02,21,4.70
2013,10,06,02,22,5.40
2013,10,06,02,23,4.70
2013,10,06,02,24,4.90
2013,10,06,02,25,5.00
2013,10,06,02,26,3.60
2013,10,06,02,27,4.20
2013,10,06,02,28,1.90
2013,10,06,02,29,4.60
2013,10,06,02,30,3.90
2013,10,06,02,31,3.00
2013,10,06,02,32,1.80
2013,10,06,02,33,2.00
2013,10,06,02,34,2.90
2013,10,06,02,35,3.20
2013,10,06,02,36,0.20
2013,10,06,02,37,2.50
2013,10,06,02,38,1.40
2013,10,06,02,39,4.20
2013,10,06,02,40,3.60
2013,10,06,02,41,3.40
2013,10,06,02,42,2.20
2013,10,06,02,43,2.60
2013,10,06,02,44,2.70
2013,10,06,02,45,2.50
2013,10,06,02,46,2.00
2013,10,06,02,47,0.70
2013,10,06,02,48,2.50
2013,10,06,02,49,0.30
2013,10,06,02,50,0.00
2013,10,06,02,51,2.20
2013,10,06,02,52,3.10
2013,10,06,02,53,0.80
2013,10,06,02,54,0.10
2013,10,06,02,55,2.50
2013,10,06,02,56,3.40
2013,10,06,02,57,4.30
2013,10,06,02,58,4.70
2013,10,06,02,59,2.60
2013,10,06,03,00,3.70
2013,10,06,03,01,3.50
2013,10,06,03,02,2.50
2013,10,06,03,03,1.70
2013,10,06,03,04,1.80
2013,10,06,03,05,1.40
2013,10,06,03,06,3.00
2013,10,06,03,07,2.20
2013,10,06,03,08,2.40
2013,10,06,03,09,0.00
2013,10,06,03,10,0.00
2013,10,06,03,11,0.00
2013,10,06,03,12,0.00
2013,10,06,03,13,0.00
2013,10,06,03,14,0.00
2013,10,06,03,15,1.90
2013,10,06,03,16,1.80
2013,10,06,03,17,1.60
2013,10,06,03,18,0.10
2013,10,06,03,19,0.00
2013,10,06,03,20,0.00
2013,10,06,03,21,2.30
2013,10,06,03,22,0.30
2013,10,06,03,23,0.00
2013,10,06,03,24,0.00
2013,10,06,03,25,0.70
2013,10,06,03,26,0.20
2013,10,06,03,27,3.00
2013,10,06,03,28,3.90
2013,10,06,03,29,5.10
2013,10,06,03,30,4.30
2013,10,06,03,31,2.20
2013,10,06,03,32,2.20
2013,10,06,03,33,3.80
2013,10,06,03,34,4.70
2013,10,06,03,35,1.50
2013,10,06,03,36,1.80
2013,10,06,03,37,4.40
2013,10,06,03,38,5.30
2013,10,06,03,39,4.30
2013,10,06,03,40,4.30
2013,10,06,03,41,4.50
2013,10,06,03,42,5.40
2013,10,06,03,43,5.40
2013,10,06,03,44,5.40
2013,10,06,03,45,3.40
2013,10,06,03,46,3.20
2013,10,06,03,47,3.30
2013,10,06,03,48,3.10
2013,10,06,03,49,1.30
2013,10,06,03,50,2.20
2013,10,06,03,51,2.80
2013,10,06,03,52,1.60
2013,10,06,03,53,3.40
2013,10,06,03,54,3.50
2013,10,06,03,55,2.90
2013,10,06,03,56,3.40
2013,10,06,03,57,4.70
2013,10,06,03,58,4.20
2013,10,06,03,59,3.50
2013,10,06,04,00,4.50
2013,10,06,04,01,2.70
2013,10,06,04,02,2.70
2013,10,06,04,03,5.70
2013,10,06,04,04,4.90
2013,10,06,04,05,4.90
2013,10,06,04,06,4.60
2013,10,06,04,07,4.70
2013,10,06,04,08,5.40
2013,10,06,04,09,6.00
2013,10,06,04,10,5.40
2013,10,06,04,11,5.60
2013,10,06,04,12,6.50
2013,10,06,04,13,6.30
2013,10,06,04,14,7.00
2013,10,06,04,15,7.40
2013,10,06,04,16,5.30
2013,10,06,04,17,6.50
2013,10,06,04,18,5.70
2013,10,06,04,19,6.80
2013,10,06,04,20,6.60
2013,10,06,04,21,5.80
2013,10,06,04,22,7.60
2013,10,06,04,23,6.30
2013,10,06,04,24,6.40
2013,10,06,04,25,5.40
2013,10,06,04,26,5.60
2013,10,06,04,27,4.10
2013,10,06,04,28,6.00
2013,10,06,04,29,5.90
2013,10,06,04,30,5.30
2013,10,06,04,31,6.00
2013,10,06,04,32,6.60
2013,10,06,04,33,6.10
2013,10,06,04,34,5.60
2013,10,06,04,35,7.00
2013,10,06,04,36,6.00
2013,10,06,04,37,6.60
2013,10,06,04,38,5.00
2013,10,06,04,39,6.10
2013,10,06,04,40,5.70
2013,10,06,04,41,5.10
2013,10,06,04,42,5.30
2013,10,06,04,43,5.70
2013,10,06,04,44,5.30
2013,10,06,04,45,5.40
2013,10,06,04,46,5.90
2013,10,06,04,47,5.60
2013,10,06,04,48,4.10
2013,10,06,04,49,4.40
2013,10,06,04,50,5.10
2013,10,06,04,51,4.70
2013,10,06,04,52,6.70
2013,10,06,04,53,6.80
2013,10,06,04,54,7.70
2013,10,06,04,55,9.70
2013,10,06,04,56,8.70
2013,10,06,04,57,8.30
2013,10,06,04,58,9.70
2013,10,06,04,59,9.30
2013,10,06,05,00,10.10
2013,10,06,05,01,9.70
2013,10,06,05,02,9.60
2013,10,06,05,03,8.60
2013,10,06,05,04,9.30
2013,10,06,05,05,9.10
2013,10,06,05,06,10.50
2013,10,06,05,07,10.10
2013,10,06,05,08,10.80
2013,10,06,05,09,9.40
2013,10,06,05,10,10.40
2013,10,06,05,11,8.30
2013,10,06,05,12,8.60
2013,10,06,05,13,9.30
2013,10,06,05,14,9.30
2013,10,06,05,15,9.10
2013,10,06,05,16,9.70
2013,10,06,05,17,11.70
2013,10,06,05,18,11.90
2013,10,06,05,19,10.10
2013,10,06,05,20,9.80
2013,10,06,05,21,10.90
2013,10,06,05,22,10.50
2013,10,06,05,23,11.00
2013,10,06,05,24,10.50
2013,10,06,05,25,10.30
2013,10,06,05,26,10.80
2013,10,06,05,27,11.20
2013,10,06,05,28,9.10
2013,10,06,05,29,9.70
2013,10,06,05,30,10.40
2013,10,06,05,31,11.40
2013,10,06,05,32,10.20
2013,10,06,05,33,11.90
2013,10,06,05,34,9.60
2013,10,06,05,35,9.90
2013,10,06,05,36,10.80
2013,10,06,05,37,10.70
2013,10,06,05,38,11.80
2013,10,06,05,39,9.30
2013,10,06,05,40,5.60
2013,10,06,05,41,6.60
2013,10,06,05,42,7.60
2013,10,06,05,43,8.80
2013,10,06,05,44,8.80
2013,10,06,05,45,10.20
2013,10,06,05,46,10.70
2013,10,06,05,47,10.70
2013,10,06,05,48,9.10
2013,10,06,05,49,10.30
2013,10,06,05,50,8.30
2013,10,06,05,51,8.20
2013,10,06,05,52,9.70
2013,10,06,05,53,9.20
2013,10,06,05,54,9.00
2013,10,06,05,55,5.50
2013,10,06,05,56,8.10
2013,10,06,05,57,8.40
2013,10,06,05,58,12.30
2013,10,06,05,59,7.00
2013,10,06,06,00,9.30
2013,10,06,06,01,6.40
2013,10,06,06,02,7.90
2013,10,06,06,03,6.00
2013,10,06,06,04,7.00
2013,10,06,06,05,6.80
2013,10,06,06,06,6.60
2013,10,06,06,07,6.20
2013,10,06,06,08,7.50
2013,10,06,06,09,6.40
2013,10,06,06,10,7.90
2013,10,06,06,11,5.80
2013,10,06,06,12,6.40
2013,10,06,06,13,7.20
2013,10,06,06,14,7.00
2013,10,06,06,15,8.10
2013,10,06,06,16,6.70
2013,10,06,06,17,6.10
2013,10,06,06,18,6.20
2013,10,06,06,19,5.60
2013,10,06,06,20,6.80
2013,10,06,06,21,7.60
2013,10,06,06,22,4.80
2013,10,06,06,23,4.30
2013,10,06,06,24,5.10
2013,10,06,06,25,5.70
2013,10,06,06,26,6.40
2013,10,06,06,27,6.30
2013,10,06,06,28,6.00
2013,10,06,06,29,6.20
2013,10,06,06,30,5.20
2013,10,06,06,31,5.30
2013,10,06,06,32,4.70
2013,10,06,06,33,5.10
2013,10,06,06,34,4.10
2013,10,06,06,35,4.30
2013,10,06,06,36,3.60
2013,10,06,06,37,4.60
2013,10,06,06,38,5.40
2013,10,06,06,39,5.10
2013,10,06,06,40,4.70
2013,10,06,06,41,4.60
2013,10,06,06,42,4.60
2013,10,06,06,43,5.50
2013,10,06,06,44,5.60
2013,10,06,06,45,6.50
2013,10,06,06,46,6.40
2013,10,06,06,47,6.00
2013,10,06,06,48,4.70
2013,10,06,06,49,6.60
2013,10,06,06,50,7.70
2013,10,06,06,51,8.10
2013,10,06,06,52,7.50
2013,10,06,06,53,7.50
2013,10,06,06,54,7.50
2013,10,06,06,55,8.50
2013,10,06,06,56,9.30
2013,10,06,06,57,8.00
2013,10,06,06,58,8.30
2013,10,06,06,59,7.60
2013,10,06,07,00,8.10
2013,10,06,07,01,6.20
2013,10,06,07,02,5.60
2013,10,06,07,03,5.80
2013,10,06,07,04,7.30
2013,10,06,07,05,6.40
2013,10,06,07,06,5.40
2013,10,06,07,07,5.90
2013,10,06,07,08,4.70
2013,10,06,07,09,5.70
2013,10,06,07,10,5.70
2013,10,06,07,11,7.20
2013,10,06,07,12,8.10
2013,10,06,07,13,7.30
2013,10,06,07,14,9.20
2013,10,06,07,15,6.40
2013,10,06,07,16,7.00
2013,10,06,07,17,7.90
2013,10,06,07,18,8.50
2013,10,06,07,19,8.50
2013,10,06,07,20,7.60
2013,10,06,07,21,6.00
2013,10,06,07,22,4.00
2013,10,06,07,23,3.90
2013,10,06,07,24,3.70
2013,10,06,07,25,4.80
2013,10,06,07,26,4.20
2013,10,06,07,27,3.70
2013,10,06,07,28,4.20
2013,10,06,07,29,5.50
2013,10,06,07,30,5.80
2013,10,06,07,31,3.90
2013,10,06,07,32,5.60
2013,10,06,07,33,7.50
2013,10,06,07,34,8.50
2013,10,06,07,35,12.10
2013,10,06,07,36,8.50
2013,10,06,07,37,10.20
2013,10,06,07,38,8.90
2013,10,06,07,39,8.70
2013,10,06,07,40,7.80
2013,10,06,07,41,7.90
2013,10,06,07,42,8.90
2013,10,06,07,43,8.40
2013,10,06,07,44,8.20
2013,10,06,07,45,9.20
2013,10,06,07,46,9.10
2013,10,06,07,47,10.10
2013,10,06,07,48,8.10
2013,10,06,07,49,8.70
2013,10,06,07,50,11.70
2013,10,06,07,51,10.20
2013,10,06,07,52,7.70
2013,10,06,07,53,8.30
2013,10,06,07,54,11.90
2013,10,06,07,55,8.90
2013,10,06,07,56,8.10
2013,10,06,07,57,10.60
2013,10,06,07,58,9.50
2013,10,06,07,59,9.40
2013,10,06,08,00,7.70
2013,10,06,08,01,9.10
2013,10,06,08,02,8.60
2013,10,06,08,03,12.50
2013,10,06,08,04,12.50
2013,10,06,08,05,11.00
2013,10,06,08,06,6.90
2013,10,06,08,07,8.10
2013,10,06,08,08,10.90
2013,10,06,08,09,9.80
2013,10,06,08,10,12.60
2013,10,06,08,11,10.90
2013,10,06,08,12,8.60
2013,10,06,08,13,10.10
2013,10,06,08,14,10.10
2013,10,06,08,15,8.80
2013,10,06,08,16,11.60
2013,10,06,08,17,16.90
2013,10,06,08,18,13.60
2013,10,06,08,19,11.90
2013,10,06,08,20,9.40
2013,10,06,08,21,11.30
2013,10,06,08,22,13.00
2013,10,06,08,23,13.50
2013,10,06,08,24,11.40
2013,10,06,08,25,6.40
2013,10,06,08,26,7.50
2013,10,06,08,27,8.10
2013,10,06,08,28,8.10
2013,10,06,08,29,7.10
2013,10,06,08,30,8.40
2013,10,06,08,31,10.50
2013,10,06,08,32,10.70
2013,10,06,08,33,13.30
2013,10,06,08,34,9.20
2013,10,06,08,35,8.90
2013,10,06,08,36,10.00
2013,10,06,08,37,12.70
2013,10,06,08,38,8.40
2013,10,06,08,39,6.30
2013,10,06,08,40,7.20
2013,10,06,08,41,10.20
2013,10,06,08,42,8.70
2013,10,06,08,43,8.90
2013,10,06,08,44,8.30
2013,10,06,08,45,7.40
2013,10,06,08,46,8.30
2013,10,06,08,47,10.80
2013,10,06,08,48,7.10
2013,10,06,08,49,5.80
2013,10,06,08,50,9.40
2013,10,06,08,51,9.30
2013,10,06,08,52,8.10
2013,10,06,08,53,9.50
2013,10,06,08,54,9.70
2013,10,06,08,55,10.20
2013,10,06,08,56,8.90
2013,10,06,08,57,10.80
2013,10,06,08,58,10.90
2013,10,06,08,59,8.40
2013,10,06,09,00,10.60
2013,10,06,09,01,6.00
2013,10,06,09,02,4.60
2013,10,06,09,03,5.40
2013,10,06,09,04,7.90
2013,10,06,09,05,10.10
2013,10,06,09,06,10.50
2013,10,06,09,07,6.70
2013,10,06,09,08,7.70
2013,10,06,09,09,7.60
2013,10,06,09,10,4.30
2013,10,06,09,11,0.10
2013,10,06,09,12,4.10
2013,10,06,09,13,5.90
2013,10,06,09,14,7.60
2013,10,06,09,15,6.80
2013,10,06,09,16,11.70
2013,10,06,09,17,8.60
2013,10,06,09,18,10.40
2013,10,06,09,19,8.00
2013,10,06,09,20,7.90
2013,10,06,09,21,10.30
2013,10,06,09,22,6.60
2013,10,06,09,23,6.80
2013,10,06,09,24,8.90
2013,10,06,09,25,9.60
2013,10,06,09,26,10.10
2013,10,06,09,27,7.70
2013,10,06,09,28,7.60
2013,10,06,09,29,7.10
2013,10,06,09,30,4.90
2013,10,06,09,31,6.10
2013,10,06,09,32,10.50
2013,10,06,09,33,9.50
2013,10,06,09,34,8.40
2013,10,06,09,35,6.40
2013,10,06,09,36,6.60
2013,10,06,09,37,6.80
2013,10,06,09,38,7.50
2013,10,06,09,39,3.70
2013,10,06,09,40,9.00
2013,10,06,09,41,6.60
2013,10,06,09,42,6.70
2013,10,06,09,43,6.30
2013,10,06,09,44,7.20
2013,10,06,09,45,6.00
2013,10,06,09,46,5.20
2013,10,06,09,47,6.10
2013,10,06,09,48,6.00
2013,10,06,09,49,5.50
2013,10,06,09,50,6.70
2013,10,06,09,51,6.40
2013,10,06,09,52,7.60
2013,10,06,09,53,7.00
2013,10,06,09,54,4.00
2013,10,06,09,55,6.10
2013,10,06,09,56,7.10
2013,10,06,09,57,6.40
2013,10,06,09,58,9.30
2013,10,06,09,59,6.50
2013,10,06,10,00,6.10
2013,10,06,10,01,7.20
2013,10,06,10,02,7.10
2013,10,06,10,03,6.40
2013,10,06,10,04,6.90
2013,10,06,10,05,6.80
2013,10,06,10,06,5.80
2013,10,06,10,07,7.50
2013,10,06,10,08,7.30
2013,10,06,10,09,8.10
2013,10,06,10,10,5.30
2013,10,06,10,11,4.90
2013,10,06,10,12,5.80
2013,10,06,10,13,8.60
2013,10,06,10,14,7.50
2013,10,06,10,15,8.00
2013,10,06,10,16,6.40
2013,10,06,10,17,6.00
2013,10,06,10,18,5.60
2013,10,06,10,19,8.20
2013,10,06,10,20,10.10
2013,10,06,10,21,7.90
2013,10,06,10,22,6.90
2013,10,06,10,23,8.20
2013,10,06,10,24,10.50
2013,10,06,10,25,8.60
2013,10,06,10,26,7.40
2013,10,06,10,27,7.90
2013,10,06,10,28,6.70
2013,10,06,10,29,6.50
2013,10,06,10,30,5.30
2013,10,06,10,31,7.50
2013,10,06,10,32,6.60
2013,10,06,10,33,7.90
2013,10,06,10,34,6.40
2013,10,06,10,35,7.00
2013,10,06,10,36,7.00
2013,10,06,10,37,8.40
2013,10,06,10,38,9.10
2013,10,06,10,39,9.40
2013,10,06,10,40,8.00
2013,10,06,10,41,6.20
2013,10,06,10,42,6.00
2013,10,06,10,43,6.70
2013,10,06,10,44,8.40
2013,10,06,10,45,6.20
2013,10,06,10,46,6.30
2013,10,06,10,47,8.10
2013,10,06,10,48,7.00
2013,10,06,10,49,4.50
2013,10,06,10,50,8.60
2013,10,06,10,51,6.40
2013,10,06,10,52,3.40
2013,10,06,10,53,3.80
2013,10,06,10,54,5.80
2013,10,06,10,55,8.40
2013,10,06,10,56,5.40
2013,10,06,10,57,4.30
2013,10,06,10,58,4.80
2013,10,06,10,59,4.00
2013,10,06,11,00,5.10
2013,10,06,11,01,6.60
2013,10,06,11,02,7.10
2013,10,06,11,03,7.60
2013,10,06,11,04,7.20
2013,10,06,11,05,7.40
2013,10,06,11,06,6.50
2013,10,06,11,07,7.40
2013,10,06,11,08,6.90
2013,10,06,11,09,8.40
2013,10,06,11,10,7.50
2013,10,06,11,11,8.80
2013,10,06,11,12,7.50
2013,10,06,11,13,4.70
2013,10,06,11,14,7.90
2013,10,06,11,15,12.30
2013,10,06,11,16,8.90
2013,10,06,11,17,8.40
2013,10,06,11,18,8.00
2013,10,06,11,19,6.60
2013,10,06,11,20,9.30
2013,10,06,11,21,10.40
2013,10,06,11,22,8.40
2013,10,06,11,23,6.30
2013,10,06,11,24,9.20
2013,10,06,11,25,7.60
2013,10,06,11,26,6.30
2013,10,06,11,27,5.10
2013,10,06,11,28,5.70
2013,10,06,11,29,5.60
2013,10,06,11,30,6.80
2013,10,06,11,31,10.50
2013,10,06,11,32,7.70
2013,10,06,11,33,6.80
2013,10,06,11,34,11.30
2013,10,06,11,35,16.70
2013,10,06,11,36,8.80
2013,10,06,11,37,7.80
2013,10,06,11,38,7.80
2013,10,06,11,39,6.90
2013,10,06,11,40,6.30
2013,10,06,11,41,9.80
2013,10,06,11,42,8.90
2013,10,06,11,43,12.10
2013,10,06,11,44,8.70
2013,10,06,11,45,5.70
2013,10,06,11,46,8.40
2013,10,06,11,47,8.10
2013,10,06,11,48,7.00
2013,10,06,11,49,7.20
2013,10,06,11,50,8.30
2013,10,06,11,51,9.20
2013,10,06,11,52,7.30
2013,10,06,11,53,8.90
2013,10,06,11,54,7.50
2013,10,06,11,55,9.00
2013,10,06,11,56,8.50
2013,10,06,11,57,7.90
2013,10,06,11,58,8.60
2013,10,06,11,59,9.40
2013,10,06,12,00,5.50
2013,10,06,12,01,7.60
2013,10,06,12,02,6.40
2013,10,06,12,03,10.50
2013,10,06,12,04,8.50
2013,10,06,12,05,4.70
2013,10,06,12,06,5.70
2013,10,06,12,07,5.50
2013,10,06,12,08,7.50
2013,10,06,12,09,11.60
2013,10,06,12,10,7.00
2013,10,06,12,11,7.00
2013,10,06,12,12,8.40
2013,10,06,12,13,8.60
2013,10,06,12,14,7.80
2013,10,06,12,15,2.40
2013,10,06,12,16,5.60
2013,10,06,12,17,10.80
2013,10,06,12,18,4.80
2013,10,06,12,19,2.80
2013,10,06,12,20,6.90
2013,10,06,12,21,7.00
2013,10,06,12,22,3.90
2013,10,06,12,23,9.70
2013,10,06,12,24,11.80
2013,10,06,12,25,14.30
2013,10,06,12,26,12.60
2013,10,06,12,27,14.00
2013,10,06,12,28,9.30
2013,10,06,12,29,8.60
2013,10,06,12,30,14.10
2013,10,06,12,31,12.10
2013,10,06,12,32,13.10
2013,10,06,12,33,14.40
2013,10,06,12,34,11.70
2013,10,06,12,35,11.80
2013,10,06,12,36,13.40
2013,10,06,12,37,11.10
2013,10,06,12,38,7.40
2013,10,06,12,39,6.20
2013,10,06,12,40,8.00
2013,10,06,12,41,7.80
2013,10,06,12,42,5.60
2013,10,06,12,43,8.50
2013,10,06,12,44,9.50
2013,10,06,12,45,7.80
2013,10,06,12,46,4.80
2013,10,06,12,47,8.00
2013,10,06,12,48,9.60
2013,10,06,12,49,9.70
2013,10,06,12,50,5.90
2013,10,06,12,51,7.70
2013,10,06,12,52,12.10
2013,10,06,12,53,6.30
2013,10,06,12,54,9.10
2013,10,06,12,55,11.80
2013,10,06,12,56,7.10
2013,10,06,12,57,16.30
2013,10,06,12,58,11.60
2013,10,06,12,59,10.30
2013,10,06,13,00,17.30
2013,10,06,13,01,14.10
2013,10,06,13,02,16.30
2013,10,06,13,03,18.00
2013,10,06,13,04,13.80
2013,10,06,13,05,12.60
2013,10,06,13,06,12.20
2013,10,06,13,07,8.50
2013,10,06,13,08,8.40
2013,10,06,13,09,15.50
2013,10,06,13,10,8.80
2013,10,06,13,11,10.30
2013,10,06,13,12,13.80
2013,10,06,13,13,9.00
2013,10,06,13,14,17.50
2013,10,06,13,15,15.50
2013,10,06,13,16,10.00
2013,10,06,13,17,12.70
2013,10,06,13,18,9.40
2013,10,06,13,19,8.00
2013,10,06,13,20,11.10
2013,10,06,13,21,6.80
2013,10,06,13,22,5.60
2013,10,06,13,23,8.20
2013,10,06,13,24,15.20
2013,10,06,13,25,10.40
2013,10,06,13,26,10.30
2013,10,06,13,27,11.60
2013,10,06,13,28,11.10
2013,10,06,13,29,8.50
2013,10,06,13,30,10.80
2013,10,06,13,31,11.80
2013,10,06,13,32,7.70
2013,10,06,13,33,5.60
2013,10,06,13,34,8.80
2013,10,06,13,35,7.80
2013,10,06,13,36,11.70
2013,10,06,13,37,12.90
2013,10,06,13,38,6.80
2013,10,06,13,39,8.30
2013,10,06,13,40,3.60
2013,10,06,13,41,8.10
2013,10,06,13,42,9.40
2013,10,06,13,43,7.00
2013,10,06,13,44,5.30
2013,10,06,13,45,10.50
2013,10,06,13,46,12.80
2013,10,06,13,47,10.30
2013,10,06,13,48,7.60
2013,10,06,13,49,6.60
2013,10,06,13,50,9.30
2013,10,06,13,51,7.20
2013,10,06,13,52,10.90
2013,10,06,13,53,8.00
2013,10,06,13,54,6.50
2013,10,06,13,55,5.80
2013,10,06,13,56,12.20
2013,10,06,13,57,5.90
2013,10,06,13,58,7.70
2013,10,06,13,59,8.50
2013,10,06,14,00,5.80
2013,10,06,14,01,5.60
2013,10,06,14,02,8.90
2013,10,06,14,03,7.50
2013,10,06,14,04,8.50
2013,10,06,14,05,8.30
2013,10,06,14,06,6.10
2013,10,06,14,07,6.20
2013,10,06,14,08,10.00
2013,10,06,14,09,10.30
2013,10,06,14,10,10.10
2013,10,06,14,11,8.60
2013,10,06,14,12,4.20
2013,10,06,14,13,8.00
2013,10,06,14,14,7.80
2013,10,06,14,15,14.10
2013,10,06,14,16,5.20
2013,10,06,14,17,7.10
2013,10,06,14,18,6.40
2013,10,06,14,19,9.50
2013,10,06,14,20,6.00
2013,10,06,14,21,7.10
2013,10,06,14,22,6.60
2013,10,06,14,23,7.90
2013,10,06,14,24,15.00
2013,10,06,14,25,9.80
2013,10,06,14,26,7.80
2013,10,06,14,27,8.30
2013,10,06,14,28,4.90
2013,10,06,14,29,5.50
2013,10,06,14,30,6.40
2013,10,06,14,31,7.20
2013,10,06,14,32,7.90
2013,10,06,14,33,10.70
2013,10,06,14,34,10.00
2013,10,06,14,35,8.10
2013,10,06,14,36,8.10
2013,10,06,14,37,7.70
2013,10,06,14,38,9.80
2013,10,06,14,39,6.40
2013,10,06,14,40,4.40
2013,10,06,14,41,8.70
2013,10,06,14,42,11.70
2013,10,06,14,43,8.90
2013,10,06,14,44,6.80
2013,10,06,14,45,7.00
2013,10,06,14,46,8.90
2013,10,06,14,47,9.70
2013,10,06,14,48,7.50
2013,10,06,14,49,9.60
2013,10,06,14,50,10.00
2013,10,06,14,51,8.20
2013,10,06,14,52,8.20
2013,10,06,14,53,11.30
2013,10,06,14,54,9.90
2013,10,06,14,55,9.30
2013,10,06,14,56,9.60
2013,10,06,14,57,8.90
2013,10,06,14,58,5.50
2013,10,06,14,59,6.80
2013,10,06,15,00,8.90
2013,10,06,15,01,6.40
2013,10,06,15,02,4.60
2013,10,06,15,03,6.00
2013,10,06,15,04,8.70
2013,10,06,15,05,10.70
2013,10,06,15,06,9.70
2013,10,06,15,07,10.80
2013,10,06,15,08,8.90
2013,10,06,15,09,8.10
2013,10,06,15,10,8.10
2013,10,06,15,11,4.70
2013,10,06,15,12,5.60
2013,10,06,15,13,7.70
2013,10,06,15,14,11.00
2013,10,06,15,15,8.20
2013,10,06,15,16,3.80
2013,10,06,15,17,0.60
2013,10,06,15,18,7.10
2013,10,06,15,19,9.90
2013,10,06,15,20,9.20
2013,10,06,15,21,8.50
2013,10,06,15,22,10.50
2013,10,06,15,23,8.30
2013,10,06,15,24,2.10
2013,10,06,15,25,5.30
2013,10,06,15,26,6.20
2013,10,06,15,27,5.30
2013,10,06,15,28,6.50
2013,10,06,15,29,9.20
2013,10,06,15,30,9.50
2013,10,06,15,31,5.80
2013,10,06,15,32,6.20
2013,10,06,15,33,5.10
2013,10,06,15,34,8.20
2013,10,06,15,35,9.20
2013,10,06,15,36,8.60
2013,10,06,15,37,8.40
2013,10,06,15,38,5.60
2013,10,06,15,39,4.80
2013,10,06,15,40,7.60
2013,10,06,15,41,6.10
2013,10,06,15,42,4.70
2013,10,06,15,43,9.50
2013,10,06,15,44,8.30
2013,10,06,15,45,9.20
2013,10,06,15,46,7.60
2013,10,06,15,47,3.50
2013,10,06,15,48,3.20
2013,10,06,15,49,5.60
2013,10,06,15,50,8.50
2013,10,06,15,51,8.30
2013,10,06,15,52,3.10
2013,10,06,15,53,3.00
2013,10,06,15,54,7.50
2013,10,06,15,55,4.50
2013,10,06,15,56,0.60
2013,10,06,15,57,0.40
2013,10,06,15,58,2.70
2013,10,06,15,59,4.20
2013,10,06,16,00,3.90
2013,10,06,16,01,7.10
2013,10,06,16,02,11.80
2013,10,06,16,03,13.00
2013,10,06,16,04,8.50
2013,10,06,16,05,7.80
2013,10,06,16,06,8.60
2013,10,06,16,07,8.00
2013,10,06,16,08,11.10
2013,10,06,16,09,10.20
2013,10,06,16,10,8.10
2013,10,06,16,11,7.70
2013,10,06,16,12,6.40
2013,10,06,16,13,9.70
2013,10,06,16,14,6.30
2013,10,06,16,15,6.60
2013,10,06,16,16,6.40
2013,10,06,16,17,8.80
2013,10,06,16,18,7.80
2013,10,06,16,19,8.00
2013,10,06,16,20,5.10
2013,10,06,16,21,8.60
2013,10,06,16,22,8.80
2013,10,06,16,23,6.50
2013,10,06,16,24,9.30
2013,10,06,16,25,6.90
2013,10,06,16,26,7.30
2013,10,06,16,27,8.70
2013,10,06,16,28,8.60
2013,10,06,16,29,11.20
2013,10,06,16,30,8.70
2013,10,06,16,31,7.90
2013,10,06,16,32,9.50
2013,10,06,16,33,10.80
2013,10,06,16,34,6.70
2013,10,06,16,35,7.80
2013,10,06,16,36,8.00
2013,10,06,16,37,5.30
2013,10,06,16,38,8.30
2013,10,06,16,39,5.00
2013,10,06,16,40,4.40
2013,10,06,16,41,7.60
2013,10,06,16,42,6.00
2013,10,06,16,43,6.50
2013,10,06,16,44,8.90
2013,10,06,16,45,6.30
2013,10,06,16,46,5.50
2013,10,06,16,47,8.30
2013,10,06,16,48,10.50
2013,10,06,16,49,7.30
2013,10,06,16,50,4.80
2013,10,06,16,51,9.40
2013,10,06,16,52,9.30
2013,10,06,16,53,6.00
2013,10,06,16,54,9.00
2013,10,06,16,55,7.00
2013,10,06,16,56,6.20
2013,10,06,16,57,6.80
2013,10,06,16,58,5.60
2013,10,06,16,59,5.10
2013,10,06,17,00,7.50
2013,10,06,17,01,4.30
2013,10,06,17,02,10.10
2013,10,06,17,03,10.10
2013,10,06,17,04,6.10
2013,10,06,17,05,11.50
2013,10,06,17,06,6.90
2013,10,06,17,07,5.60
2013,10,06,17,08,8.60
2013,10,06,17,09,6.80
2013,10,06,17,10,6.60
2013,10,06,17,11,5.70
2013,10,06,17,12,5.00
2013,10,06,17,13,5.50
2013,10,06,17,14,7.40
2013,10,06,17,15,8.30
2013,10,06,17,16,11.30
2013,10,06,17,17,10.10
2013,10,06,17,18,7.30
2013,10,06,17,19,7.10
2013,10,06,17,20,4.70
2013,10,06,17,21,3.60
2013,10,06,17,22,4.40
2013,10,06,17,23,5.90
2013,10,06,17,24,2.20
2013,10,06,17,25,6.70
2013,10,06,17,26,6.00
2013,10,06,17,27,2.50
2013,10,06,17,28,2.50
2013,10,06,17,29,8.00
2013,10,06,17,30,4.60
2013,10,06,17,31,4.80
2013,10,06,17,32,5.50
2013,10,06,17,33,1.40
2013,10,06,17,34,3.50
2013,10,06,17,35,3.40
2013,10,06,17,36,2.60
2013,10,06,17,37,0.30
2013,10,06,17,38,1.30
2013,10,06,17,39,0.00
2013,10,06,17,40,0.00
2013,10,06,17,41,0.00
2013,10,06,17,42,1.50
2013,10,06,17,43,1.30
2013,10,06,17,44,2.90
2013,10,06,17,45,8.70
2013,10,06,17,46,7.60
2013,10,06,17,47,4.80
2013,10,06,17,48,8.50
2013,10,06,17,49,5.70
2013,10,06,17,50,6.40
2013,10,06,17,51,7.60
2013,10,06,17,52,6.90
2013,10,06,17,53,6.80
2013,10,06,17,54,2.40
2013,10,06,17,55,0.00
2013,10,06,17,56,1.50
2013,10,06,17,57,3.30
2013,10,06,17,58,1.10
2013,10,06,17,59,3.50